Location: D�pe
(52.6057°N, 8.1808°E)
Time: 01:57:27
(UTC+00:00)

CZ-4C R/B - Pass Details

Date: 29 October 2020
Orbit: 624 x 1378 km, 63.4° (Epoch: 23 November)

Event Time Altitude Azimuth Distance (km) Brightness Sun altitude
Rises 18:38:44 0° 311° (NW) 3,649 6.4 -24.2°
Reaches altitude 10° 18:41:09 10° 314° (NW) 2,804 5.6 -24.6°
Maximum altitude 18:47:53 66° 37° (NE) 1,261 2.9 -25.6°
Enters shadow 18:49:38 52° 91° (E) 1,454 2.9 -25.8°
